| time (UTC) | temp F | wind direction | speed MPH | gust MPH | rain 1hr in | rain 24hr in | rain mn in | humidity % | barometer mb |
| 20260902005249 | 77 | 117 | 1.0 | 2.0 | 0.00 | 0.00 | 0.00 | 61 | 1013.8 |
| 20260902004743 | 77 | 120 | 7.0 | 7.0 | 0.00 | 0.00 | 0.00 | 60 | 1013.7 |
| 20260902004238 | 77 | 124 | 3.0 | 3.0 | 0.00 | 0.00 | 0.00 | 61 | 1013.7 |
| 20260902003733 | 77 | 146 | 4.0 | 5.0 | 0.00 | 0.00 | 0.00 | 61 | 1013.8 |
| 20260902003229 | 77 | 149 | 5.0 | 6.0 | 0.00 | 0.00 | 0.00 | 60 | 1013.9 |
| 20260902002725 | 78 | 118 | 7.0 | 8.0 | 0.00 | 0.00 | 0.00 | 58 | 1013.9 |
| 20260902002224 | 77 | 127 | 8.0 | 8.0 | 0.00 | 0.00 | 0.00 | 61 | 1013.9 |
| 20260902001720 | 77 | 119 | 5.0 | 8.0 | 0.00 | 0.00 | 0.00 | 61 | 1013.9 |
| 20260902001219 | 78 | 139 | 4.0 | 6.0 | 0.00 | 0.00 | 0.00 | 57 | 1013.8 |
| 20260902000714 | 78 | 138 | 5.0 | 7.0 | 0.00 | 0.00 | 0.00 | 58 | 1014.1 |
| 20260902000211 | 79 | 130 | 5.0 | 6.0 | 0.00 | 0.00 | 0.00 | 57 | 1014.0 |
| 20260901235709 | 78 | 133 | 2.0 | 3.0 | 0.00 | 0.00 | 0.00 | 57 | 1013.8 |
| 20260901235204 | 79 | 132 | 1.0 | 1.0 | 0.00 | 0.00 | 0.00 | 59 | 1014.0 |
| 20260901234704 | 79 | 99 | 4.0 | 6.0 | 0.00 | 0.00 | 0.00 | 59 | 1014.2 |
| 20260901234159 | 80 | 113 | 5.0 | 6.0 | 0.00 | 0.00 | 0.00 | 57 | 1013.8 |
| 20260901233658 | 80 | 116 | 4.0 | 7.0 | 0.00 | 0.00 | 0.00 | 57 | 1014.1 |
| 20260901233155 | 79 | 146 | 2.0 | 6.0 | 0.00 | 0.00 | 0.00 | 57 | 1014.1 |
| 20260901232649 | 80 | 119 | 7.0 | 9.0 | 0.00 | 0.00 | 0.00 | 54 | 1014.0 |
| 20260901232144 | 80 | 52 | 3.0 | 3.0 | 0.00 | 0.00 | 0.00 | 54 | 1014.1 |
| 20260901231641 | 80 | 111 | 3.0 | 6.0 | 0.00 | 0.00 | 0.00 | 55 | 1014.1 |
| 20260901231138 | 80 | 121 | 5.0 | 8.0 | 0.00 | 0.00 | 0.00 | 55 | 1013.9 |
| 20260901230633 | 80 | 181 | 3.0 | 3.0 | 0.00 | 0.00 | 0.00 | 55 | 1014.0 |
| 20260901230132 | 82 | 144 | 5.0 | 7.0 | 0.00 | 0.00 | 0.00 | 52 | 1014.0 |
| 20260901225627 | 82 | 187 | 2.0 | 3.0 | 0.00 | 0.00 | 0.00 | 52 | 1013.9 |
| 20260901225122 | 82 | 203 | 4.0 | 6.0 | 0.00 | 0.00 | 0.00 | 51 | 1013.9 |
| 20260901224618 | 82 | 94 | 6.0 | 8.0 | 0.00 | 0.00 | 0.00 | 50 | 1014.1 |
| 20260901224114 | 82 | 167 | 5.0 | 6.0 | 0.00 | 0.00 | 0.00 | 50 | 1014.1 |
| 20260901223609 | 82 | 190 | 5.0 | 6.0 | 0.00 | 0.00 | 0.00 | 49 | 1014.0 |
| 20260901223104 | 82 | 206 | 6.0 | 7.0 | 0.00 | 0.00 | 0.00 | 48 | 1014.2 |
| 20260901222601 | 82 | 196 | 5.0 | 7.0 | 0.00 | 0.00 | 0.00 | 51 | 1014.2 |
| 20260901222056 | 82 | 139 | 4.0 | 6.0 | 0.00 | 0.00 | 0.00 | 47 | 1014.2 |
| 20260901221552 | 82 | 137 | 4.0 | 5.0 | 0.00 | 0.00 | 0.00 | 48 | 1014.2 |
| 20260901221047 | 82 | 194 | 7.0 | 10.0 | 0.00 | 0.00 | 0.00 | 43 | 1014.2 |
| 20260901220547 | 82 | 146 | 5.0 | 8.0 | 0.00 | 0.00 | 0.00 | 48 | 1014.1 |
| 20260901220046 | 82 | 193 | 2.0 | 2.0 | 0.00 | 0.00 | 0.00 | 49 | 1014.3 |
| 20260901215544 | 82 | 199 | 3.0 | 5.0 | 0.00 | 0.00 | 0.00 | 47 | 1014.5 |
| 20260901215038 | 82 | 223 | 5.0 | 7.0 | 0.00 | 0.00 | 0.00 | 49 | 1014.5 |
| 20260901214537 | 82 | 111 | 5.0 | 6.0 | 0.00 | 0.00 | 0.00 | 47 | 1014.4 |
| 20260901214032 | 83 | 189 | 5.0 | 5.0 | 0.00 | 0.00 | 0.00 | 47 | 1014.5 |
| 20260901213531 | 82 | 167 | 4.0 | 5.0 | 0.00 | 0.00 | 0.00 | 46 | 1014.5 |
| 20260901213026 | 83 | 212 | 4.0 | 5.0 | 0.00 | 0.00 | 0.00 | 47 | 1014.5 |
| 20260901212526 | 83 | 204 | 4.0 | 6.0 | 0.00 | 0.00 | 0.00 | 49 | 1014.7 |
| 20260901212023 | 83 | 192 | 4.0 | 5.0 | 0.00 | 0.00 | 0.00 | 46 | 1014.5 |
| 20260901211518 | 83 | 102 | 2.0 | 5.0 | 0.00 | 0.00 | 0.00 | 49 | 1014.5 |
| 20260901211014 | 83 | 129 | 3.0 | 3.0 | 0.00 | 0.00 | 0.00 | 49 | 1014.4 |
| 20260901210509 | 83 | 201 | 5.0 | 7.0 | 0.00 | 0.00 | 0.00 | 48 | 1014.6 |
| 20260901210005 | 84 | 199 | 3.0 | 5.0 | 0.00 | 0.00 | 0.00 | 49 | 1014.6 |
| 20260901205500 | 84 | 131 | 6.0 | 8.0 | 0.00 | 0.00 | 0.00 | 49 | 1014.5 |
| 20260901204954 | 84 | 82 | 3.0 | 6.0 | 0.00 | 0.00 | 0.00 | 51 | 1014.6 |
| 20260901204451 | 83 | 105 | 5.0 | 7.0 | 0.00 | 0.00 | 0.00 | 50 | 1014.6 |
| 20260901203950 | 83 | 212 | 6.0 | 9.0 | 0.00 | 0.00 | 0.00 | 51 | 1014.5 |
| 20260901203446 | 83 | 117 | 5.0 | 8.0 | 0.00 | 0.00 | 0.00 | 51 | 1014.7 |
| 20260901202941 | 83 | 181 | 3.0 | 5.0 | 0.00 | 0.00 | 0.00 | 53 | 1014.6 |
| 20260901202435 | 83 | 208 | 4.0 | 5.0 | 0.00 | 0.00 | 0.00 | 52 | 1014.7 |
| 20260901201931 | 84 | 105 | 8.0 | 10.0 | 0.00 | 0.00 | 0.00 | 52 | 1014.6 |
| 20260901201426 | 84 | 130 | 4.0 | 6.0 | 0.00 | 0.00 | 0.00 | 54 | 1014.8 |
| 20260901200920 | 85 | 86 | 2.0 | 3.0 | 0.00 | 0.00 | 0.00 | 51 | 1014.8 |
| 20260901200415 | 84 | 191 | 2.0 | 2.0 | 0.00 | 0.00 | 0.00 | 52 | 1014.8 |
| 20260901195914 | 85 | 169 | 3.0 | 5.0 | 0.00 | 0.00 | 0.00 | 53 | 1014.9 |
| 20260901195408 | 84 | 110 | 7.0 | 8.0 | 0.00 | 0.00 | 0.00 | 53 | 1015.0 |
| 20260901194903 | 85 | 104 | 2.0 | 2.0 | 0.00 | 0.00 | 0.00 | 53 | 1014.8 |
| 20260901194356 | 84 | 167 | 1.0 | 2.0 | 0.00 | 0.00 | 0.00 | 53 | 1015.0 |
| 20260901193853 | 84 | 183 | 3.0 | 5.0 | 0.00 | 0.00 | 0.00 | 54 | 1015.0 |
| 20260901193351 | 85 | 130 | 6.0 | 7.0 | 0.00 | 0.00 | 0.00 | 53 | 1014.9 |
| 20260901192846 | 84 | 144 | 2.0 | 2.0 | 0.00 | 0.00 | 0.00 | 52 | 1015.1 |
| 20260901192342 | 84 | 131 | 4.0 | 5.0 | 0.00 | 0.00 | 0.00 | 55 | 1015.1 |
| 20260901191838 | 84 | 139 | 1.0 | 3.0 | 0.00 | 0.00 | 0.00 | 54 | 1015.2 |
| 20260901191333 | 85 | 111 | 1.0 | 2.0 | 0.00 | 0.00 | 0.00 | 53 | 1015.1 |
| 20260901190829 | 85 | 165 | 2.0 | 3.0 | 0.00 | 0.00 | 0.00 | 53 | 1015.0 |
| 20260901190329 | 84 | 159 | 5.0 | 6.0 | 0.00 | 0.00 | 0.00 | 53 | 1015.2 |
| 20260901185827 | 84 | 198 | 0.0 | 1.0 | 0.00 | 0.00 | 0.00 | 54 | 1015.2 |
| 20260901185321 | 84 | 264 | 3.0 | 6.0 | 0.00 | 0.00 | 0.00 | 54 | 1015.1 |
| 20260901184816 | 84 | 172 | 3.0 | 3.0 | 0.00 | 0.00 | 0.00 | 53 | 1015.5 |
| 20260901184312 | 84 | 113 | 4.0 | 6.0 | 0.00 | 0.00 | 0.00 | 54 | 1015.4 |
| 20260901183807 | 84 | 153 | 4.0 | 5.0 | 0.00 | 0.00 | 0.00 | 54 | 1015.3 |
| 20260901183307 | 84 | 195 | 1.0 | 2.0 | 0.00 | 0.00 | 0.00 | 53 | 1015.4 |
| 20260901182803 | 83 | 160 | 5.0 | 6.0 | 0.00 | 0.00 | 0.00 | 53 | 1015.4 |
| 20260901182305 | 83 | 100 | 2.0 | 3.0 | 0.00 | 0.00 | 0.00 | 53 | 1015.4 |
| 20260901181757 | 84 | 96 | 3.0 | 3.0 | 0.00 | 0.00 | 0.00 | 53 | 1015.7 |
| 20260901181251 | 83 | 161 | 1.0 | 1.0 | 0.00 | 0.00 | 0.00 | 55 | 1015.4 |
| 20260901180750 | 82 | 270 | 3.0 | 3.0 | 0.00 | 0.00 | 0.00 | 55 | 1015.6 |
| 20260901180250 | 83 | 184 | 1.0 | 1.0 | 0.00 | 0.00 | 0.00 | 54 | 1015.5 |
| 20260901175749 | 82 | 132 | 1.0 | 2.0 | 0.00 | 0.00 | 0.00 | 57 | 1015.6 |
| 20260901175244 | 81 | 129 | 1.0 | 1.0 | 0.00 | 0.00 | 0.00 | 55 | 1015.6 |
| 20260901174739 | 82 | 104 | 2.0 | 2.0 | 0.00 | 0.00 | 0.00 | 58 | 1015.6 |
| 20260901174235 | 80 | 49 | 1.0 | 2.0 | 0.00 | 0.00 | 0.00 | 59 | 1015.7 |
| 20260901173731 | 80 | 75 | 4.0 | 6.0 | 0.00 | 0.00 | 0.00 | 61 | 1015.4 |
| 20260901173226 | 81 | 310 | 1.0 | 2.0 | 0.00 | 0.00 | 0.00 | 61 | 1015.4 |
| 20260901172723 | 80 | 168 | 1.0 | 1.0 | 0.00 | 0.00 | 0.00 | 64 | 1015.5 |
| 20260901172221 | 78 | 113 | 0.0 | 0.0 | 0.00 | 0.00 | 0.00 | 66 | 1015.7 |
| 20260901171719 | 78 | 159 | 1.0 | 1.0 | 0.00 | 0.00 | 0.00 | 66 | 1015.5 |
| 20260901171218 | 78 | 126 | 2.0 | 2.0 | 0.00 | 0.00 | 0.00 | 66 | 1015.6 |
| 20260901170717 | 78 | 163 | 1.0 | 1.0 | 0.00 | 0.00 | 0.00 | 66 | 1015.7 |
| 20260901170213 | 78 | 98 | 1.0 | 1.0 | 0.00 | 0.00 | 0.00 | 67 | 1015.3 |
| 20260901165711 | 77 | 121 | 1.0 | 2.0 | 0.00 | 0.00 | 0.00 | 68 | 1015.6 |
| 20260901165206 | 77 | 97 | 0.0 | 1.0 | 0.00 | 0.00 | 0.00 | 69 | 1015.4 |
| 20260901164703 | 76 | 218 | 0.0 | 1.0 | 0.00 | 0.00 | 0.00 | 71 | 1015.4 |
| 20260901164157 | 76 | 344 | 1.0 | 2.0 | 0.00 | 0.00 | 0.00 | 71 | 1015.5 |
| 20260901163653 | 76 | 84 | 1.0 | 1.0 | 0.00 | 0.00 | 0.00 | 72 | 1015.6 |
| 20260901163152 | 75 | 152 | 0.0 | 0.0 | 0.00 | 0.00 | 0.00 | 74 | 1015.6 |
| 20260901162647 | 74 | 204 | 1.0 | 2.0 | 0.00 | 0.00 | 0.00 | 75 | 1015.5 |
| 20260901162147 | 73 | 142 | 1.0 | 1.0 | 0.00 | 0.00 | 0.00 | 77 | 1015.6 |
| 20260901161645 | 74 | 115 | 2.0 | 2.0 | 0.00 | 0.00 | 0.00 | 75 | 1015.5 |
| 20260901161145 | 74 | 110 | 1.0 | 1.0 | 0.00 | 0.00 | 0.00 | 75 | 1015.6 |
| 20260901160642 | 73 | 69 | 0.0 | 1.0 | 0.00 | 0.00 | 0.00 | 77 | 1015.4 |
| 20260901160137 | 72 | 75 | 2.0 | 2.0 | 0.00 | 0.00 | 0.00 | 78 | 1015.5 |
| 20260901155636 | 72 | 154 | 2.0 | 2.0 | 0.00 | 0.00 | 0.00 | 79 | 1015.3 |
| 20260901155131 | 72 | 146 | 1.0 | 1.0 | 0.00 | 0.00 | 0.00 | 79 | 1015.4 |
| 20260901154626 | 72 | 145 | 0.0 | 0.0 | 0.00 | 0.00 | 0.00 | 80 | 1015.4 |
| 20260901154121 | 71 | 164 | 0.0 | 0.0 | 0.00 | 0.00 | 0.00 | 81 | 1015.4 |
| 20260901153615 | 71 | 145 | 2.0 | 2.0 | 0.00 | 0.00 | 0.00 | 81 | 1015.2 |
| 20260901153109 | 71 | 117 | 0.0 | 1.0 | 0.00 | 0.00 | 0.00 | 82 | 1015.4 |
| 20260901152605 | 70 | 139 | 0.0 | 0.0 | 0.00 | 0.00 | 0.00 | 82 | 1015.3 |
| 20260901152103 | 71 | 152 | 0.0 | 0.0 | 0.00 | 0.00 | 0.00 | 82 | 1015.3 |
| 20260901151559 | 69 | 194 | 0.0 | 1.0 | 0.00 | 0.00 | 0.00 | 84 | 1015.2 |
| 20260901151058 | 69 | 196 | 0.0 | 0.0 | 0.00 | 0.00 | 0.00 | 83 | 1015.0 |
| 20260901150557 | 69 | 195 | 0.0 | 0.0 | 0.00 | 0.00 | 0.00 | 84 | 1015.1 |
| 20260901150056 | 68 | 195 | 0.0 | 0.0 | 0.00 | 0.00 | 0.00 | 87 | 1015.2 |
| 20260901145554 | 67 | 185 | 0.0 | 0.0 | 0.00 | 0.00 | 0.00 | 92 | 1015.0 |
| 20260901145048 | 66 | 185 | 0.0 | 0.0 | 0.00 | 0.00 | 0.00 | 95 | 1015.1 |
| 20260901144544 | 64 | 184 | 0.0 | 0.0 | 0.00 | 0.00 | 0.00 | 96 | 1015.1 |
| 20260901144039 | 64 | 185 | 0.0 | 0.0 | 0.00 | 0.00 | 0.00 | 98 | 1014.9 |
| 20260901143534 | 63 | 184 | 1.0 | 1.0 | 0.00 | 0.00 | 0.00 | 98 | 1015.3 |
| 20260901143026 | 63 | 191 | 0.0 | 0.0 | 0.00 | 0.00 | 0.00 | 98 | 1015.2 |
| 20260901142525 | 62 | 193 | 0.0 | 0.0 | 0.00 | 0.00 | 0.00 | 99 | 1015.1 |
| 20260901142021 | 61 | 194 | 0.0 | 0.0 | 0.00 | 0.00 | 0.00 | 99 | 1015.2 |
| 20260901141521 | 60 | 164 | 1.0 | 1.0 | 0.00 | 0.00 | 0.00 | 99 | 1015.2 |
| 20260901141015 | 60 | 140 | 0.0 | 0.0 | 0.00 | 0.00 | 0.00 | 99 | 1015.3 |
| 20260901140514 | 59 | 139 | 0.0 | 0.0 | 0.00 | 0.00 | 0.00 | 99 | 1015.0 |
| 20260901140009 | 59 | 139 | 0.0 | 0.0 | 0.00 | 0.00 | 0.00 | 99 | 1014.9 |
| 20260901135502 | 59 | 140 | 0.0 | 0.0 | 0.00 | 0.00 | 0.00 | 99 | 1015.0 |
| 20260901134958 | 58 | 140 | 0.0 | 0.0 | 0.00 | 0.00 | 0.00 | 99 | 1015.0 |
| 20260901134453 | 58 | 140 | 0.0 | 0.0 | 0.00 | 0.00 | 0.00 | 99 | 1014.9 |
| 20260901133948 | 58 | 140 | 0.0 | 0.0 | 0.00 | 0.00 | 0.00 | 99 | 1014.9 |
| 20260901133447 | 57 | 140 | 0.0 | 0.0 | 0.00 | 0.00 | 0.00 | 99 | 1014.6 |
| 20260901132946 | 57 | 140 | 0.0 | 0.0 | 0.00 | 0.00 | 0.00 | 99 | 1014.8 |
| 20260901132446 | 57 | 140 | 0.0 | 0.0 | 0.00 | 0.00 | 0.00 | 99 | 1014.6 |
| 20260901131945 | 57 | 140 | 0.0 | 1.0 | 0.00 | 0.00 | 0.00 | 99 | 1014.5 |
| 20260901131439 | 58 | 140 | 0.0 | 0.0 | 0.00 | 0.00 | 0.00 | 99 | 1014.5 |
| 20260901130934 | 58 | 141 | 0.0 | 0.0 | 0.00 | 0.00 | 0.00 | 99 | 1014.4 |
| 20260901130430 | 58 | 140 | 0.0 | 0.0 | 0.00 | 0.00 | 0.00 | 99 | 1014.6 |
| 20260901125927 | 58 | 140 | 0.0 | 0.0 | 0.00 | 0.00 | 0.00 | 99 | 1014.5 |
| 20260901125426 | 59 | 141 | 0.0 | 0.0 | 0.00 | 0.00 | 0.00 | 99 | 1014.3 |
| 20260901124921 | 58 | 140 | 0.0 | 0.0 | 0.00 | 0.00 | 0.00 | 99 | 1014.3 |
| 20260901124417 | 58 | 140 | 0.0 | 0.0 | 0.00 | 0.00 | 0.00 | 99 | 1014.3 |
| 20260901123911 | 58 | 140 | 0.0 | 0.0 | 0.00 | 0.00 | 0.00 | 99 | 1014.2 |
| 20260901123406 | 58 | 140 | 0.0 | 0.0 | 0.00 | 0.00 | 0.00 | 99 | 1014.4 |
| 20260901122904 | 58 | 140 | 0.0 | 0.0 | 0.00 | 0.00 | 0.00 | 98 | 1014.3 |
| 20260901122359 | 58 | 140 | 0.0 | 0.0 | 0.00 | 0.00 | 0.00 | 98 | 1014.3 |
| 20260901121858 | 58 | 140 | 0.0 | 0.0 | 0.00 | 0.00 | 0.00 | 98 | 1014.1 |
| 20260901121353 | 58 | 140 | 0.0 | 0.0 | 0.00 | 0.00 | 0.00 | 98 | 1014.3 |
| 20260901120849 | 59 | 140 | 0.0 | 0.0 | 0.00 | 0.00 | 0.00 | 98 | 1014.0 |
| 20260901120343 | 59 | 140 | 0.0 | 0.0 | 0.00 | 0.00 | 0.00 | 98 | 1014.3 |
| 20260901115839 | 59 | 140 | 0.0 | 0.0 | 0.00 | 0.00 | 0.00 | 98 | 1014.2 |
| 20260901115334 | 59 | 140 | 0.0 | 0.0 | 0.00 | 0.00 | 0.00 | 98 | 1014.3 |
| 20260901114832 | 59 | 140 | 0.0 | 0.0 | 0.00 | 0.00 | 0.00 | 98 | 1014.1 |
| 20260901114331 | 59 | 140 | 0.0 | 0.0 | 0.00 | 0.00 | 0.00 | 98 | 1014.2 |
| 20260901113829 | 59 | 140 | 0.0 | 0.0 | 0.00 | 0.00 | 0.00 | 98 | 1014.5 |
| 20260901113329 | 60 | 140 | 0.0 | 1.0 | 0.00 | 0.00 | 0.00 | 98 | 1014.4 |
| 20260901112824 | 60 | 141 | 1.0 | 1.0 | 0.00 | 0.00 | 0.00 | 98 | 1014.5 |
| 20260901112324 | 60 | 135 | 0.0 | 0.0 | 0.00 | 0.00 | 0.00 | 98 | 1014.5 |
| 20260901111819 | 59 | 135 | 0.0 | 0.0 | 0.00 | 0.00 | 0.00 | 98 | 1014.3 |
| 20260901111318 | 59 | 135 | 0.0 | 0.0 | 0.00 | 0.00 | 0.00 | 98 | 1014.3 |
| 20260901110817 | 59 | 135 | 0.0 | 0.0 | 0.00 | 0.00 | 0.00 | 98 | 1014.6 |
| 20260901110312 | 59 | 135 | 0.0 | 0.0 | 0.00 | 0.00 | 0.00 | 98 | 1014.3 |
| 20260901105808 | 60 | 134 | 1.0 | 1.0 | 0.00 | 0.00 | 0.00 | 97 | 1014.2 |
| 20260901105305 | 60 | 138 | 0.0 | 0.0 | 0.00 | 0.00 | 0.00 | 98 | 1014.4 |
| 20260901104759 | 60 | 137 | 0.0 | 0.0 | 0.00 | 0.00 | 0.00 | 97 | 1014.5 |
| 20260901104254 | 60 | 137 | 0.0 | 0.0 | 0.00 | 0.00 | 0.00 | 97 | 1014.5 |
| 20260901103749 | 60 | 139 | 0.0 | 0.0 | 0.00 | 0.00 | 0.00 | 97 | 1014.3 |
| 20260901103244 | 60 | 139 | 0.0 | 0.0 | 0.00 | 0.00 | 0.00 | 97 | 1014.5 |
| 20260901102739 | 60 | 139 | 0.0 | 0.0 | 0.00 | 0.00 | 0.00 | 97 | 1014.3 |
| 20260901102239 | 61 | 139 | 0.0 | 0.0 | 0.00 | 0.00 | 0.00 | 97 | 1014.3 |
| 20260901101735 | 61 | 139 | 0.0 | 0.0 | 0.00 | 0.00 | 0.00 | 97 | 1014.4 |
| 20260901101234 | 62 | 139 | 0.0 | 0.0 | 0.00 | 0.00 | 0.00 | 97 | 1014.3 |
| 20260901100733 | 62 | 138 | 0.0 | 0.0 | 0.00 | 0.00 | 0.00 | 97 | 1014.2 |
| 20260901100228 | 62 | 138 | 0.0 | 1.0 | 0.00 | 0.00 | 0.00 | 97 | 1014.4 |
| 20260901095727 | 61 | 136 | 0.0 | 0.0 | 0.00 | 0.00 | 0.00 | 97 | 1014.5 |
| 20260901095224 | 61 | 131 | 0.0 | 1.0 | 0.00 | 0.00 | 0.00 | 97 | 1014.5 |
| 20260901094719 | 62 | 143 | 0.0 | 0.0 | 0.00 | 0.00 | 0.00 | 97 | 1014.4 |
| 20260901094214 | 63 | 143 | 0.0 | 0.0 | 0.00 | 0.00 | 0.00 | 97 | 1014.3 |
| 20260901093709 | 63 | 174 | 0.0 | 0.0 | 0.00 | 0.00 | 0.00 | 97 | 1014.2 |
| 20260901093208 | 62 | 178 | 0.0 | 0.0 | 0.00 | 0.00 | 0.00 | 98 | 1014.4 |
| 20260901092704 | 61 | 134 | 0.0 | 1.0 | 0.00 | 0.00 | 0.00 | 97 | 1014.3 |
| 20260901092200 | 61 | 134 | 0.0 | 0.0 | 0.00 | 0.00 | 0.00 | 97 | 1014.5 |
| 20260901091655 | 61 | 134 | 0.0 | 0.0 | 0.00 | 0.00 | 0.00 | 97 | 1014.3 |
| 20260901091150 | 60 | 134 | 0.0 | 0.0 | 0.00 | 0.00 | 0.00 | 97 | 1014.3 |
| 20260901090645 | 60 | 135 | 0.0 | 0.0 | 0.00 | 0.00 | 0.00 | 97 | 1014.6 |
| 20260901090140 | 59 | 134 | 1.0 | 1.0 | 0.00 | 0.00 | 0.00 | 97 | 1014.5 |
| 20260901085636 | 59 | 135 | 1.0 | 1.0 | 0.00 | 0.00 | 0.00 | 96 | 1014.4 |
| 20260901085131 | 59 | 135 | 0.0 | 0.0 | 0.00 | 0.00 | 0.00 | 97 | 1014.7 |
| 20260901084627 | 59 | 135 | 1.0 | 1.0 | 0.00 | 0.00 | 0.00 | 96 | 1014.7 |
| 20260901084124 | 59 | 138 | 0.0 | 0.0 | 0.00 | 0.00 | 0.00 | 96 | 1014.5 |
| 20260901083618 | 59 | 138 | 0.0 | 0.0 | 0.00 | 0.00 | 0.00 | 96 | 1014.5 |
| 20260901083116 | 59 | 138 | 0.0 | 0.0 | 0.00 | 0.00 | 0.00 | 96 | 1014.5 |
| 20260901082611 | 60 | 138 | 0.0 | 0.0 | 0.00 | 0.00 | 0.00 | 96 | 1014.2 |
| 20260901082107 | 60 | 138 | 0.0 | 0.0 | 0.00 | 0.00 | 0.00 | 96 | 1014.7 |
| 20260901081601 | 60 | 138 | 1.0 | 1.0 | 0.00 | 0.00 | 0.00 | 96 | 1014.5 |
| 20260901081055 | 60 | 138 | 0.0 | 0.0 | 0.00 | 0.00 | 0.00 | 96 | 1014.4 |
| 20260901080550 | 60 | 138 | 0.0 | 0.0 | 0.00 | 0.00 | 0.00 | 96 | 1014.4 |
| 20260901080049 | 60 | 138 | 0.0 | 0.0 | 0.00 | 0.00 | 0.00 | 96 | 1014.7 |
| 20260901075545 | 60 | 138 | 0.0 | 0.0 | 0.00 | 0.00 | 0.00 | 96 | 1014.6 |
| 20260901075044 | 60 | 140 | 1.0 | 1.0 | 0.00 | 0.00 | 0.00 | 96 | 1014.7 |
| 20260901074544 | 60 | 140 | 0.0 | 0.0 | 0.00 | 0.00 | 0.00 | 96 | 1014.6 |
| 20260901074039 | 60 | 140 | 0.0 | 0.0 | 0.00 | 0.00 | 0.00 | 95 | 1014.5 |
| 20260901073536 | 60 | 140 | 0.0 | 0.0 | 0.00 | 0.00 | 0.00 | 95 | 1014.3 |
| 20260901073030 | 61 | 141 | 0.0 | 0.0 | 0.00 | 0.00 | 0.00 | 95 | 1014.6 |
| 20260901072525 | 60 | 140 | 0.0 | 0.0 | 0.00 | 0.00 | 0.00 | 95 | 1014.7 |
| 20260901072020 | 60 | 140 | 0.0 | 0.0 | 0.00 | 0.00 | 0.00 | 95 | 1014.8 |
| 20260901071520 | 60 | 140 | 0.0 | 1.0 | 0.00 | 0.00 | 0.00 | 95 | 1014.5 |
| 20260901071018 | 60 | 140 | 1.0 | 1.0 | 0.00 | 0.00 | 0.00 | 95 | 1014.6 |
| 20260901070514 | 61 | 141 | 0.0 | 1.0 | 0.00 | 0.00 | 0.00 | 95 | 1014.3 |
| 20260901070009 | 61 | 140 | 0.0 | 0.0 | 0.00 | 0.00 | 0.00 | 94 | 1014.5 |
| 20260901065504 | 61 | 140 | 0.0 | 0.0 | 0.00 | 0.00 | 0.00 | 94 | 1014.9 |
| 20260901064958 | 61 | 140 | 0.0 | 0.0 | 0.00 | 0.00 | 0.00 | 94 | 1014.6 |
| 20260901064454 | 61 | 142 | 0.0 | 0.0 | 0.00 | 0.00 | 0.00 | 94 | 1014.4 |
| 20260901063951 | 61 | 142 | 0.0 | 0.0 | 0.00 | 0.00 | 0.00 | 94 | 1014.5 |
| 20260901063448 | 61 | 143 | 0.0 | 0.0 | 0.00 | 0.00 | 0.00 | 94 | 1014.6 |
| 20260901062944 | 61 | 142 | 0.0 | 0.0 | 0.00 | 0.00 | 0.00 | 94 | 1014.3 |
| 20260901062439 | 61 | 142 | 0.0 | 1.0 | 0.00 | 0.00 | 0.00 | 93 | 1014.5 |
| 20260901061935 | 62 | 154 | 0.0 | 1.0 | 0.00 | 0.00 | 0.00 | 93 | 1014.5 |
| 20260901061431 | 62 | 177 | 0.0 | 0.0 | 0.00 | 0.00 | 0.00 | 93 | 1014.5 |
| 20260901060925 | 62 | 175 | 0.0 | 0.0 | 0.00 | 0.00 | 0.00 | 93 | 1014.5 |
| 20260901060421 | 62 | 175 | 0.0 | 0.0 | 0.00 | 0.00 | 0.00 | 92 | 1014.4 |
| 20260901055920 | 62 | 177 | 0.0 | 0.0 | 0.00 | 0.00 | 0.00 | 92 | 1014.4 |
| 20260901055417 | 63 | 177 | 1.0 | 1.0 | 0.00 | 0.00 | 0.00 | 91 | 1014.4 |
| 20260901054913 | 63 | 183 | 0.0 | 0.0 | 0.00 | 0.00 | 0.00 | 92 | 1014.4 |
| 20260901054410 | 62 | 161 | 0.0 | 0.0 | 0.00 | 0.00 | 0.00 | 91 | 1014.3 |
| 20260901053906 | 62 | 149 | 1.0 | 1.0 | 0.00 | 0.00 | 0.00 | 90 | 1014.4 |
| 20260901053401 | 63 | 186 | 1.0 | 1.0 | 0.00 | 0.00 | 0.00 | 91 | 1014.5 |
| 20260901052856 | 62 | 136 | 1.0 | 1.0 | 0.00 | 0.00 | 0.00 | 90 | 1014.4 |
| 20260901052352 | 62 | 136 | 0.0 | 1.0 | 0.00 | 0.00 | 0.00 | 89 | 1014.3 |
| 20260901051850 | 63 | 135 | 1.0 | 1.0 | 0.00 | 0.00 | 0.00 | 88 | 1014.2 |
| 20260901051346 | 63 | 138 | 0.0 | 0.0 | 0.00 | 0.00 | 0.00 | 88 | 1014.0 |
| 20260901050840 | 63 | 137 | 1.0 | 1.0 | 0.00 | 0.00 | 0.00 | 88 | 1014.4 |
| 20260901050336 | 63 | 134 | 0.0 | 0.0 | 0.00 | 0.00 | 0.00 | 89 | 1014.3 |
| 20260901045831 | 63 | 134 | 0.0 | 1.0 | 0.00 | 0.00 | 0.00 | 89 | 1014.3 |
| 20260901045330 | 63 | 134 | 1.0 | 1.0 | 0.00 | 0.00 | 0.00 | 89 | 1014.2 |
| 20260901044826 | 63 | 135 | 0.0 | 0.0 | 0.00 | 0.00 | 0.00 | 89 | 1014.2 |
| 20260901044322 | 64 | 134 | 0.0 | 0.0 | 0.00 | 0.00 | 0.00 | 90 | 1014.1 |
| 20260901043818 | 64 | 160 | 0.0 | 0.0 | 0.00 | 0.00 | 0.00 | 90 | 1014.1 |
| 20260901043314 | 65 | 159 | 0.0 | 0.0 | 0.00 | 0.00 | 0.00 | 90 | 1014.2 |
| 20260901042812 | 66 | 159 | 0.0 | 0.0 | 0.00 | 0.00 | 0.00 | 90 | 1014.2 |
| 20260901042308 | 66 | 159 | 1.0 | 1.0 | 0.00 | 0.00 | 0.00 | 90 | 1014.2 |
| 20260901041803 | 67 | 200 | 1.0 | 1.0 | 0.00 | 0.00 | 0.00 | 91 | 1014.3 |
| 20260901041258 | 67 | 164 | 0.0 | 0.0 | 0.00 | 0.00 | 0.00 | 91 | 1014.3 |
| 20260901040755 | 68 | 165 | 0.0 | 0.0 | 0.00 | 0.00 | 0.00 | 91 | 1014.3 |
| 20260901040251 | 68 | 159 | 0.0 | 1.0 | 0.00 | 0.00 | 0.00 | 91 | 1014.2 |
| 20260901035745 | 68 | 133 | 0.0 | 0.0 | 0.00 | 0.00 | 0.00 | 91 | 1014.3 |
| 20260901035244 | 68 | 140 | 1.0 | 1.0 | 0.00 | 0.00 | 0.00 | 90 | 1014.1 |
| 20260901034743 | 68 | 164 | 0.0 | 0.0 | 0.00 | 0.00 | 0.00 | 90 | 1013.9 |
| 20260901034238 | 68 | 150 | 0.0 | 1.0 | 0.00 | 0.00 | 0.00 | 90 | 1013.8 |
| 20260901033737 | 68 | 148 | 0.0 | 1.0 | 0.00 | 0.00 | 0.00 | 89 | 1013.7 |
| 20260901033237 | 68 | 121 | 1.0 | 1.0 | 0.00 | 0.00 | 0.00 | 89 | 1013.5 |
| 20260901032730 | 68 | 154 | 0.0 | 0.0 | 0.00 | 0.00 | 0.00 | 88 | 1013.7 |
| 20260901032224 | 68 | 137 | 2.0 | 2.0 | 0.00 | 0.00 | 0.00 | 88 | 1013.6 |
| 20260901031720 | 69 | 157 | 3.0 | 3.0 | 0.00 | 0.00 | 0.00 | 88 | 1013.6 |
| 20260901031216 | 69 | 124 | 2.0 | 2.0 | 0.00 | 0.00 | 0.00 | 87 | 1013.4 |
| 20260901030710 | 69 | 162 | 0.0 | 1.0 | 0.00 | 0.00 | 0.00 | 87 | 1013.2 |
| 20260901030205 | 69 | 171 | 3.0 | 3.0 | 0.00 | 0.00 | 0.00 | 86 | 1013.3 |
| 20260901025659 | 69 | 136 | 1.0 | 2.0 | 0.00 | 0.00 | 0.00 | 86 | 1013.2 |
| 20260901025154 | 69 | 125 | 3.0 | 5.0 | 0.00 | 0.00 | 0.00 | 85 | 1013.1 |
| 20260901024648 | 70 | 108 | 4.0 | 6.0 | 0.00 | 0.00 | 0.00 | 84 | 1013.1 |
| 20260901024148 | 70 | 146 | 4.0 | 5.0 | 0.00 | 0.00 | 0.00 | 83 | 1013.1 |
| 20260901023646 | 70 | 129 | 3.0 | 3.0 | 0.00 | 0.00 | 0.00 | 82 | 1013.1 |
| 20260901023141 | 71 | 138 | 5.0 | 7.0 | 0.00 | 0.00 | 0.00 | 81 | 1012.8 |
| 20260901022636 | 71 | 160 | 1.0 | 1.0 | 0.00 | 0.00 | 0.00 | 80 | 1013.0 |
| 20260901022131 | 71 | 182 | 1.0 | 1.0 | 0.00 | 0.00 | 0.00 | 79 | 1012.8 |
| 20260901021627 | 72 | 107 | 2.0 | 2.0 | 0.00 | 0.00 | 0.00 | 78 | 1012.9 |
| 20260901021122 | 72 | 149 | 1.0 | 1.0 | 0.00 | 0.00 | 0.00 | 77 | 1012.6 |
| 20260901020618 | 72 | 139 | 4.0 | 5.0 | 0.00 | 0.00 | 0.00 | 76 | 1012.4 |
| 20260901020113 | 73 | 138 | 3.0 | 3.0 | 0.00 | 0.00 | 0.00 | 76 | 1012.6 |
| 20260901015608 | 73 | 146 | 3.0 | 3.0 | 0.00 | 0.00 | 0.00 | 75 | 1012.6 |
| 20260901015108 | 73 | 130 | 1.0 | 1.0 | 0.00 | 0.00 | 0.00 | 75 | 1012.4 |
| 20260901014603 | 74 | 137 | 1.0 | 2.0 | 0.00 | 0.00 | 0.00 | 74 | 1012.3 |
| 20260901014059 | 74 | 152 | 1.0 | 2.0 | 0.00 | 0.00 | 0.00 | 74 | 1012.5 |
| 20260901013554 | 75 | 106 | 3.0 | 3.0 | 0.00 | 0.00 | 0.00 | 73 | 1012.6 |
| 20260901013050 | 76 | 130 | 2.0 | 3.0 | 0.00 | 0.00 | 0.00 | 71 | 1012.5 |
| 20260901012550 | 76 | 144 | 1.0 | 2.0 | 0.00 | 0.00 | 0.00 | 69 | 1012.2 |
| 20260901012045 | 76 | 144 | 5.0 | 6.0 | 0.00 | 0.00 | 0.00 | 68 | 1012.2 |
| 20260901011542 | 76 | 150 | 5.0 | 6.0 | 0.00 | 0.00 | 0.00 | 67 | 1012.6 |
| 20260901011039 | 76 | 153 | 4.0 | 6.0 | 0.00 | 0.00 | 0.00 | 67 | 1012.5 |
| 20260901010534 | 77 | 156 | 5.0 | 6.0 | 0.00 | 0.00 | 0.00 | 66 | 1012.5 |
| 20260901010033 | 77 | 124 | 4.0 | 5.0 | 0.00 | 0.00 | 0.00 | 65 | 1012.7 |